Aérodrome :
LOGIN :

S'inscrire | Disclaimer

   EN    FR    IT 

 










Légende :    VFR   VFR Marginal   IFR   IFR Intensif   IFR Très Intensif
Visi : 
Plafond : 
>= 8 km
>= 3000ft
5 à 8 km
1000 à 3000 ft
1500m à 5 km
500 à 1000 ft
800 à 1500m
200 à 500 ft
< 800m
< 200 ft
Symboles :   Orages  Brouillard  Fortes neiges  Fortes précipitations  Vent > 20 kt
SIGMETs :   Divers  Orages  Givrage  Turbulence  Onde Orograph.  Cendres Volcan.






- Altitude de l'aérodrome : 13 ft
- Code IATA : OST


EBOS - Oostend bruges Int.

DERNIER METAR :
  • 251820Z 18004KT 7000 NSC 08/07 Q1017 NOSIG

METARs EXPIRÉS :
  • 251750Z 18005KT 7000 NSC 08/07 Q1016 NOSIG
  • 251720Z 18006KT 7000 NSC 08/07 Q1016 NOSIG
  • 251650Z 17006KT 8000 NSC 08/07 Q1016 NOSIG
  • 251620Z 16006KT 8000 NSC 07/06 Q1015 NOSIG
  • 251550Z 16006KT CAVOK 08/06 Q1015 NOSIG

TAF TAF EBOS
Valide du 25 à 18h jusqu'au 27 à 00h UTC


251711Z 2518/2624 18008KT 9999 SCT020
BECMG 2600/2602 BKN012
PROB40
TEMPO 2602/2607 4000 -DZ BKN007
BECMG 2612/2614 BKN020



MET'MAP, la Météo Aéronautique d'un coup d'oeil ! - Copyright ORBIFLY Décembre 2007 - Disclaimer

ORBIFLY MET'MAP TEAM :

Programmation & Développement : Alexandra Zaïnal
Sur une idée originale de : Baudouin d'Aumeries
Assistance à la programmation : Marc-Olivier Méhu
Soutien technique & logistique : Manuel Goepfert

Contact : metmap@orbifly.com




SOURCES & CREDITS :

   NOAA